CARTOSAT-2E (42767 NORAD) Tracking and Keplerian Element Data

This shows tracking and keplerian element data for the satellite.

Feedback or suggestion? Click here.




ElementValue
Catalog42767
NameCARTOSAT-2E
Epoch Orbit5871
Epoch Day195.90996254
Epoch Year2018
RAAN254.0138
Inclination97.3979
Eccentricity0.0008107
Argument of Perigee343.4314
Mean Anonmoly16.6654
Mean Motion15.19301786
Decay Rate3.66E-06
L11 42767U 17036C 18195.90996254 .00000366 00000-0 20521-4 0 9990
L22 42767 97.3979 254.0138 0008107 343.4314 16.6654 15.19301786 58713

Live tracking and technical data element details for CARTOSAT-2E (NORAD 42767). CARTOSAT-2E can be tracked NOW for your location showing map with azimuth and elevation plus other details from your city location.

Track the satellite on the map from your city or location and see movement details for azimuth, elevation, latitude, longitude, range, height, and movement on the map or in text.







IsCatalogInMostPopularTable: catalog: 42767, numindb: 71
Update: records affected: 1



GetName: 42767 CARTOSAT-2E

Hit Count: updated at: Sun, 15 Jul 2018 23:02:34 GMT